Regional Weather Roundup
Issued by NWS

Home | Current Version | Previous Version | Text Only | Print | Product List | Glossary Off
Versions: 1 2 3 4 5 6 7 8 9 10 11 12 13 14 15 16 17 18 19 20 21 22 23 24 25 26 27 28 29 30 31 32 33 34 35 36 37 38 39 40 41 42 43 44 45 46 47 48 49 50

000
ASUS43 KIND 221059
RWRIN

WEATHER ROUNDUP FOR INDIANA
NATIONAL WEATHER SERVICE INDIANAPOLIS IN
700 AM EDT FRI AUG 22 2014

NOTE: "FAIR" INDICATES FEW OR NO CLOUDS BELOW 12,000 FEET WITH NO
SIGNIFICANT WEATHER AND/OR OBSTRUCTIONS TO VISIBILITY.

* - STATION DOES NOT REPORT WEATHER SUCH AS PRECIPITATION OR FOG.

+ - STATION NOT QUALITY CONTROLLED BY THE NATIONAL WEATHER SERVICE.
    USE DATA WITH CAUTION...ESPECIALLY DEWPOINT AND RELATIVE
    HUMIDITY OBSERVATIONS.

INZ001>003-010>013-019-020-221200-
NORTHWEST INDIANA

CITY           SKY/WX    TMP DP  RH WIND       PRES   REMARKS
GARY /AIRPORT/ MOCLDY    73  72  94 S5        29.93R
KNOX *+        CLOUDY    69  67  93 CALM      29.94R
MONTICELLO +   HVY RAIN  70  70  99 S7        29.98R
VALPARAISO     CLOUDY    70  69  97 S6        29.94R

$$

LMZ046-743>745-221200-
SOUTHERN LAKE MICHIGAN

STATION/POSITION TIME  TEMP WIND        PRES
                       AIR  DIR/SP/G
                 (UTC) (F)  (DEG/KT/KT) (MB)
MICHIGAN CITY    1000   73  170/  3/  4   N/A

$$

INZ004-005-014>016-021>024-221200-
NORTH CENTRAL INDIANA

CITY           SKY/WX    TMP DP  RH WIND       PRES   REMARKS
GOSHEN         CLOUDY    72  69  90 S5        29.96R
SOUTH BEND     CLOUDY    72  69  90 SE5       29.94R

$$

INZ006>009-017-018-025>027-221200-
NORTHEAST INDIANA

CITY           SKY/WX    TMP DP  RH WIND       PRES   REMARKS
ANGOLA *+      CLOUDY    70  61  73 CALM      29.97R
FORT WAYNE     CLOUDY    70  68  93 SW9       29.99R

$$

INZ028-029-035-036-043>045-051>053-221200-
WEST CENTRAL INDIANA

CITY           SKY/WX    TMP DP  RH WIND       PRES   REMARKS
GREENCASTLE +  CLOUDY    73  72  94 CALM      29.96R
LAFAYETTE      RAIN      71  71 100 NE7       29.97R
TERRE HAUTE    CLOUDY    76  72  87 SW6       29.96R

$$

INZ030>032-037>040-046>048-054>057-064-065-221200-
CENTRAL INDIANA

CITY           SKY/WX    TMP DP  RH WIND       PRES   REMARKS
FRANKFORT +    TSTM     N/A N/A N/A NE12G31   30.01R
INDIANAPOLIS   CLOUDY    75  72  90 SW13      29.95R
-EAGLE CREEK   CLOUDY    75  71  87 SW7       29.95R
KOKOMO *+      CLOUDY    72  68  88 CALM      29.98R
MT COMFORT *+  CLOUDY    73 N/A N/A S3        29.96R
SHELBYVILLE    CLOUDY    75  32  20 S5        29.96R

$$

INZ033-034-041-042-049-050-058-059-221200-
EAST CENTRAL INDIANA

CITY           SKY/WX    TMP DP  RH WIND       PRES   REMARKS
MUNCIE         LGT RAIN  71  68  90 E5        30.00S

$$

INZ060-061-067>069-081>083-085>088-221200-
SOUTHWEST INDIANA

CITY           SKY/WX    TMP DP  RH WIND       PRES   REMARKS
EVANSVILLE     CLEAR     75  72  90 SW7       29.99R

$$

INZ062-063-066-070>080-084-089>092-221200-
SOUTH CENTRAL AND SOUTHEAST INDIANA

CITY           SKY/WX    TMP DP  RH WIND       PRES   REMARKS
BLOOMINGTON    MOCLDY    76  72  87 W10       29.98R

$$




USA.gov is the U.S. government's official web portal to all federal, state and local government web resources and services.